Weather History for Alexandroupoli, Greece

Change the Weather History Date:

Monday, July 8, 2013

  Actual Average Record
Temperature  
Mean Temperature 82 °F -  
Max Temperature 93 °F 86 °F 95 °F (1999)
Min Temperature 71 °F 63 °F 59 °F (2004)
Cooling Degree Days 17    
Growing Degree Days 32 (Base 50)    
Moisture  
Dew Point 56 °F    
Average Humidity 42    
Maximum Humidity 69    
Minimum Humidity 17    
Precipitation  
Precipitation 0.00 in 0.02 in - ()
Sea Level Pressure  
Sea Level Pressure 30.02 in    
Wind  
Wind Speed 13 mph ()    
Max Wind Speed 22 mph    
Max Gust Speed 34 mph    
Visibility 6.1 miles    
Events      
Averages and records for this station are not official NWS values.
T = Trace of Precipitation, MM = Missing Value Source: Averaged Metar Reports

Daily Weather History Graph

Daily Weather History Graph

Search for Another Location

Airport:

Trip Planner

Search our weather history database for the weather conditions in past years. The results will help you decide how hot, cold, wet, or windy it might be!

Date:

Astronomy

Jul. 08, 2013 Rise Set
Actual Time 5:52 AM EEST 8:49 PM EEST
Civil Twilight 5:19 AM EEST 9:22 PM EEST
Nautical Twilight 4:37 AM EEST 10:04 PM EEST
Astronomical Twilight 3:48 AM EEST 10:53 PM EEST
Moon 6:04 AM EEST (7/8) 8:39 PM EEST (7/8)
Length of Visible Light 16h 03m
Length of Day
14h 57m
New Moon, 0% of the Moon is Illuminated
Jul 8
New Moon
Jul 16
First Quarter
Jul 22
Full
Jul 29
Last Quarter
Aug 7
New

Hourly Weather History & Observations

Time (EEST) Temp. Heat Index Dew Point Humidity Pressure Visibility Wind Dir Wind Speed Gust Speed Precip Events Conditions
12:20 AM 77.0 °F - 55.4 °F 47% 30.01 in - NNE 8.1 mph - N/A   Clear
12:50 AM 77.0 °F - 55.4 °F 47% 30.01 in - North 9.2 mph - N/A   Clear
1:20 AM 75.2 °F - 55.4 °F 50% 30.01 in - North 9.2 mph - N/A   Clear
1:50 AM 75.2 °F - 55.4 °F 50% 30.04 in - NNE 13.8 mph - N/A   Clear
2:20 AM 75.2 °F - 55.4 °F 50% 30.04 in - NNE 13.8 mph - N/A   Clear
2:50 AM 73.4 °F - 55.4 °F 53% 30.04 in - NNE 13.8 mph - N/A   Clear
3:00 AM 73 °F - 56 °F 45% 30.04 in 6 mi NNE 13.8 mph - -  
3:20 AM 73.4 °F - 55.4 °F 53% 30.04 in - NNE 13.8 mph - N/A   Clear
3:50 AM 71.6 °F - 55.4 °F 57% 30.04 in - North 13.8 mph - N/A   Clear
4:20 AM 71.6 °F - 55.4 °F 57% 30.04 in - North 13.8 mph - N/A   Clear
4:50 AM 71.6 °F - 55.4 °F 57% 30.01 in - NNE 13.8 mph - N/A   Clear
5:50 AM 71.6 °F - 59.0 °F 64% 30.01 in - NNE 12.7 mph - N/A   Clear
6:20 AM 71.6 °F - 59.0 °F 64% 30.01 in - NNE 12.7 mph - N/A   Clear
6:50 AM 71.6 °F - 60.8 °F 69% 30.01 in - NNE 12.7 mph - N/A   Clear
7:20 AM 71.6 °F - 60.8 °F 69% 30.01 in - NNE 12.7 mph - N/A   Clear
7:50 AM 73.4 °F - 60.8 °F 65% 30.01 in - North 12.7 mph - N/A   Clear
8:20 AM 75.2 °F - 60.8 °F 61% 30.01 in - North 12.7 mph - N/A   Clear
8:50 AM 80.6 °F 80.3 °F 53.6 °F 39% 30.04 in - NNE 18.4 mph - N/A   Clear
9:00 AM 81 °F - 53 °F 27% 30.04 in 6 mi NNE 18.4 mph - -  
9:20 AM 80.6 °F 80.3 °F 53.6 °F 39% 30.04 in - NNE 18.4 mph - N/A   Clear
9:50 AM 82.4 °F 81.4 °F 53.6 °F 37% 30.04 in - NNE 16.1 mph - N/A   Clear
10:20 AM 82.4 °F 81.4 °F 53.6 °F 37% 30.04 in - NNE 15.0 mph - N/A   Clear
10:50 AM 84.2 °F 82.8 °F 53.6 °F 35% 30.04 in - NNE 17.3 mph - N/A   Clear
11:20 AM 86.0 °F 84.2 °F 53.6 °F 33% 30.04 in - NNE 17.3 mph - N/A   Clear
11:50 AM 86.0 °F 84.2 °F 53.6 °F 33% 30.04 in - NE 19.6 mph - N/A   Clear
12:20 PM 86.0 °F 84.2 °F 53.6 °F 33% 30.04 in - NNE 18.4 mph 34.5 mph N/A   Clear
12:50 PM 89.6 °F 87.7 °F 55.4 °F 31% 30.04 in - NNE 18.4 mph 29.9 mph N/A   Clear
1:20 PM 89.6 °F 87.7 °F 55.4 °F 31% 30.04 in - NNE 18.4 mph 29.9 mph N/A   Clear
1:50 PM 91.4 °F 89.1 °F 53.6 °F 28% 30.04 in - NNE 20.7 mph 32.2 mph N/A   Clear
2:20 PM 91.4 °F 89.1 °F 53.6 °F 28% 30.04 in - NNE 20.7 mph - N/A   Clear
2:50 PM 93.2 °F 90.8 °F 53.6 °F 26% 30.01 in 6.2 mi NE 21.9 mph - N/A   Partly Cloudy
3:00 PM 93 °F - 53 °F 17% 30.03 in 6 mi NE 21.9 mph - -   Scattered Clouds
3:20 PM 93.2 °F 90.8 °F 53.6 °F 26% 30.01 in 6.2 mi NE 19.6 mph - N/A   Partly Cloudy
3:50 PM 93.2 °F 90.8 °F 53.6 °F 26% 30.01 in 6.2 mi NNE 19.6 mph - N/A   Partly Cloudy
4:20 PM 93.2 °F 90.8 °F 53.6 °F 26% 30.01 in 6.2 mi NE 19.6 mph - N/A   Partly Cloudy
4:50 PM 93.2 °F 91.3 °F 55.4 °F 28% 30.01 in 6.2 mi ENE 19.6 mph - N/A   Partly Cloudy
5:20 PM 93.2 °F 91.3 °F 55.4 °F 28% 30.01 in 6.2 mi NE 18.4 mph - N/A   Partly Cloudy
5:50 PM 93.2 °F 90.8 °F 53.6 °F 26% 29.98 in 6.2 mi ENE 18.4 mph - N/A   Partly Cloudy
6:20 PM 91.4 °F 89.1 °F 53.6 °F 28% 29.98 in - NE 16.1 mph - N/A   Clear
6:50 PM 91.4 °F 89.1 °F 53.6 °F 28% 29.98 in - NE 18.4 mph - N/A   Clear
7:20 PM 91.4 °F 89.1 °F 53.6 °F 28% 29.98 in - ENE 16.1 mph - N/A   Clear
7:50 PM 89.6 °F 87.7 °F 55.4 °F 31% 29.98 in - ENE 15.0 mph - N/A   Clear
8:20 PM 87.8 °F 86.1 °F 55.4 °F 33% 29.98 in - ENE 10.4 mph - N/A   Clear
8:50 PM 86.0 °F 84.9 °F 57.2 °F 37% 30.01 in - ENE 8.1 mph - N/A   Clear
9:20 PM 84.2 °F 83.5 °F 57.2 °F 40% 30.01 in - NE 6.9 mph - N/A   Clear
9:50 PM 80.6 °F 81.5 °F 60.8 °F 51% 30.04 in - NNE 8.1 mph - N/A   Clear
10:20 PM 80.6 °F 81.5 °F 60.8 °F 51% 30.04 in - NNE 8.1 mph - N/A   Clear
10:50 PM 78.8 °F - 60.8 °F 54% 30.06 in - NNE 8.1 mph - N/A   Clear
11:20 PM 78.8 °F - 60.8 °F 54% 30.06 in - NNE 8.1 mph - N/A   Clear
11:50 PM 78.8 °F - 60.8 °F 54% 30.06 in - NNE 12.7 mph - N/A   Clear